TimeEST,TemperatureF,Dew PointF,Humidity,Sea Level PressureIn,VisibilityMPH,Wind Direction,Wind SpeedMPH,Gust SpeedMPH,PrecipitationIn,Events,Conditions,WindDirDegrees,DateUTC
12:53 AM,70.0,64.9,84,30.06,10.0,North,4.6,-,N/A,,Clear,10,2011-11-24 05:53:00
1:53 AM,69.1,64.0,84,30.05,10.0,NNE,8.1,-,N/A,,Clear,30,2011-11-24 06:53:00
2:53 AM,68.0,62.1,81,30.05,10.0,NNE,10.4,17.3,N/A,,Clear,20,2011-11-24 07:53:00
3:53 AM,66.0,59.0,78,30.07,10.0,NE,12.7,-,N/A,,Clear,40,2011-11-24 08:53:00
4:53 AM,64.0,57.9,80,30.09,10.0,NE,9.2,-,N/A,,Clear,50,2011-11-24 09:53:00
5:53 AM,62.1,55.9,80,30.09,10.0,NE,12.7,-,N/A,,Clear,40,2011-11-24 10:53:00
6:53 AM,61.0,55.0,81,30.12,10.0,NE,10.4,17.3,N/A,,Clear,40,2011-11-24 11:53:00
7:53 AM,62.1,55.0,78,30.14,10.0,ENE,6.9,-,N/A,,Clear,60,2011-11-24 12:53:00
8:53 AM,66.0,55.9,70,30.16,10.0,NE,9.2,-,N/A,,Clear,50,2011-11-24 13:53:00
9:53 AM,69.1,57.0,65,30.17,10.0,ENE,10.4,-,N/A,,Clear,60,2011-11-24 14:53:00
10:53 AM,73.0,57.9,59,30.17,10.0,ENE,11.5,17.3,N/A,,Clear,60,2011-11-24 15:53:00
11:53 AM,75.0,55.9,51,30.15,10.0,East,12.7,-,N/A,,Clear,80,2011-11-24 16:53:00
12:53 PM,77.0,55.9,48,30.12,10.0,ENE,13.8,-,N/A,,Clear,70,2011-11-24 17:53:00
1:53 PM,78.8,55.4,44,30.11,10.0,ENE,9.2,19.6,N/A,,Clear,60,2011-11-24 18:53:00
2:53 PM,80.1,55.0,42,30.10,10.0,ENE,10.4,18.4,N/A,,Partly Cloudy,70,2011-11-24 19:53:00
3:53 PM,79.0,55.9,45,30.11,10.0,ENE,10.4,-,N/A,,Clear,70,2011-11-24 20:53:00
4:53 PM,77.0,55.9,48,30.12,10.0,ENE,10.4,20.7,N/A,,Clear,70,2011-11-24 21:53:00
5:53 PM,73.0,55.9,55,30.14,10.0,NE,9.2,-,N/A,,Mostly Cloudy,50,2011-11-24 22:53:00
6:53 PM,71.1,55.9,59,30.17,10.0,ENE,9.2,18.4,N/A,,Clear,60,2011-11-24 23:53:00
7:53 PM,68.0,55.0,63,30.19,10.0,ENE,13.8,-,N/A,,Clear,70,2011-11-25 00:53:00
8:53 PM,66.9,55.0,66,30.21,10.0,ENE,9.2,-,N/A,,Clear,60,2011-11-25 01:53:00
9:53 PM,64.9,54.0,68,30.22,10.0,ENE,10.4,-,N/A,,Clear,60,2011-11-25 02:53:00
10:53 PM,64.0,54.0,70,30.22,10.0,ENE,9.2,-,N/A,,Clear,60,2011-11-25 03:53:00
11:53 PM,62.6,53.6,72,30.21,10.0,ENE,9.2,-,N/A,,Clear,60,2011-11-25 04:53:00